Location: Bartshausen
(51.8454°N, 9.8167°E)
Time: 09:16:38
(UTC+00:00)

IRS-1D - Pass Details

Date: 08 November 2025
Orbit: 736 x 811 km, 98.8° (Epoch: 11 December)

Event Time Altitude Azimuth Distance (km) Brightness Sun altitude
Rises 04:32:07 0° 15° (NNE) 3,221 6.9 -18.0°
Reaches altitude 10° 04:34:26 10° 16° (NNE) 2,282 6.1 -17.6°
Maximum altitude 04:39:28 88° 105° (ESE) 750 3.4 -16.8°
Drops below altitude 10° 04:44:23 10° 197° (SSW) 2,239 5.8 -16.1°
Sets 04:46:39 0° 197° (SSW) 3,156 6.6 -15.7°
